Regional Weather Roundup
Issued by NWS

Home | Current Version | Previous Version | Text Only | Print | Product List | Glossary Off
Versions: 1 2 3 4 5 6 7 8 9 10 11 12 13 14 15 16 17 18 19 20 21 22 23 24 25 26 27 28 29 30 31 32 33 34 35 36 37 38 39 40 41 42 43 44 45 46 47 48 49 50

000
ASUS43 KOAX 281202
RWRNE

WEATHER ROUNDUP FOR NEBRASKA
NATIONAL WEATHER SERVICE OMAHA NE
700 AM CDT SAT MAR 28 2015

NOTES: SATELLITE DATA IS BEING USED TO AUGMENT CLOUD COVER ABOVE
       12000 FEET.
       "FAIR" INDICATES FEW OR NO CLOUDS BELOW 12,000 FEET WITH NO
       SIGNIFICANT WEATHER AND/OR OBSTRUCTIONS TO VISIBILITY.

  * THESE STATIONS DO NOT REPORT WEATHER SUCH AS RAIN...SNOW OR FOG.

NEZ001>004-019>022-054>056-281300-
NEBRASKA PANHANDLE

CITY           SKY/WX    TMP DP  RH WIND       PRES   REMARKS
SCOTTSBLUFF    CLEAR     32  26  78 W6        29.99S WCI  26
6HR MIN TEMP:  31; 6HR MAX TEMP:  45;

ALLIANCE       CLEAR     30  25  81 CALM      29.97S
6HR MIN TEMP:  29; 6HR MAX TEMP:  38;

CHADRON        CLEAR     32  28  85 SW5       29.95S WCI  27
6HR MIN TEMP:  31; 6HR MAX TEMP:  40;

KIMBALL        CLEAR     41  28  60 W7        30.01S
SIDNEY         CLEAR     38  27  64 W13       30.00S WCI  30
6HR MIN TEMP:  34; 6HR MAX TEMP:  41;

$$

NEZ057>060-069>072-079>082-281300-
SOUTHWEST NEBRASKA

CITY           SKY/WX    TMP DP  RH WIND       PRES   REMARKS
NORTH PLATTE   CLEAR     27  25  92 CALM      30.00R
6HR MIN TEMP:  27; 6HR MAX TEMP:  39;

IMPERIAL         N/A     35  28  75 N3        29.99R
6HR MIN TEMP:  33; 6HR MAX TEMP:  44;

LEXINGTON      CLEAR     29  26  88 S3        30.00R
MCCOOK         CLEAR     35  31  85 W9        29.97R WCI  28
6HR MIN TEMP:  34; 6HR MAX TEMP:  43;

OGALLALA       CLEAR     31  29  91 W5        29.99R WCI  26
$$

NEZ005>010-023>029-035>040-094-281300-
NORTH CENTRAL NEBRASKA

CITY           SKY/WX    TMP DP  RH WIND       PRES   REMARKS
VALENTINE      CLEAR     27  24  89 W3        29.98R
6HR MIN TEMP:  25; 6HR MAX TEMP:  37;

AINSWORTH      CLEAR     29  27  94 E5        29.98S WCI  24
BROKEN BOW     CLEAR     26  25  96 CALM      29.98R
6HR MIN TEMP:  26; 6HR MAX TEMP:  35;

O`NEILL        CLEAR     30  27  90 SE5       30.02R WCI  25
ORD            CLEAR     22  19  89 CALM      30.02R
6HR MIN TEMP:  21; 6HR MAX TEMP:  31;

$$

NEZ041-046>049-061>064-073>077-083>087-281300-
SOUTH CENTRAL NEBRASKA

CITY           SKY/WX    TMP DP  RH WIND       PRES   REMARKS
GRAND ISLAND   CLEAR     29  25  85 SE8       30.04R WCI  21
6HR MIN TEMP:  28; 6HR MAX TEMP:  32;

AURORA         CLEAR     30  27  89 E7        30.05R WCI  23
HASTINGS       PTCLDY    29  22  75 E6        30.02R WCI  23
6HR MIN TEMP:  25; 6HR MAX TEMP:  35;

HEBRON         CLEAR     31  24  73 E3        30.05R
HOLDREGE       CLEAR     29  24  81 E6        29.99S WCI  23
KEARNEY *      CLEAR     23  19  86 E5        30.01R WCI  17
YORK           MOCLDY    32  27  80 E8        30.06R WCI  25
$$

NEZ011>018-030>034-042>045-281300-
NORTHEAST NEBRASKA

CITY           SKY/WX    TMP DP  RH WIND       PRES   REMARKS
NORFOLK        CLEAR     28  22  78 SE8       30.07R WCI  20
6HR MIN TEMP:  27; 6HR MAX TEMP:  33;

ALBION         CLEAR     27  23  85 SE5       30.05S WCI  22
BLAIR          CLEAR     32  26  81 E9        30.10R WCI  24
COLUMBUS *     CLEAR     30  19  64 E6        30.09R WCI  24
FREMONT        CLEAR     31  26  83 E7        30.11R WCI  24
TEKAMAH        PTCLDY    30  24  78 SE7       30.13R WCI  23
6HR MIN TEMP:  30; 6HR MAX TEMP:  36;

WAYNE          CLEAR     27  24  88 SE8       30.10R WCI  18
$$

NEZ050>053-065>068-078-088>093-281300-
SOUTHEAST NEBRASKA

CITY           SKY/WX    TMP DP  RH WIND       PRES   REMARKS
LINCOLN        PTCLDY    32  24  72 SE7       30.11R WCI  26
6HR MIN TEMP:  32; 6HR MAX TEMP:  36;

OMAHA EPPLEY   MOCLDY    34  26  72 SE12      30.13R WCI  25
6HR MIN TEMP:  34; 6HR MAX TEMP:  37;

BEATRICE       MOCLDY    33  26  75 E6        30.08R WCI  27
FALLS CITY     MOCLDY    34  27  75 E13       30.11R WCI  25
6HR MIN TEMP:  34; 6HR MAX TEMP:  36;

NEBRASKA CITY  CLEAR     31  26  84 E6        30.11R WCI  25
PLATTSMOUTH    CLEAR     30  26  84 E8        30.11S WCI  23
$$

NEZ044-045-051>053-067-281300-
OMAHA AREA

CITY           SKY/WX    TMP DP  RH WIND       PRES   REMARKS
OMAHA EPPLEY   MOCLDY    34  26  72 SE12      30.13R WCI  25
6HR MIN TEMP:  34; 6HR MAX TEMP:  37;

BLAIR          CLEAR     32  26  81 E9        30.10R WCI  24
FREMONT        CLEAR     31  26  83 E7        30.11R WCI  24
MILLARD        CLEAR     33  27  78 E7        30.12R WCI  26
OFFUTT AFB     PTCLDY    32  26  80 E7        30.12R WCI  25
PLATTSMOUTH    CLEAR     30  26  84 E8        30.11S WCI  23
WAHOO          FAIR      29  26  85 SE7       30.10R WCI  22
$$


USA.gov is the U.S. government's official web portal to all federal, state and local government web resources and services.